Information on these data can be found in provided Readme document
Contact Info: Zachary Fasnacht (zachary.fasnacht@ssaihq.com); Nickolay Krotkov (nickolay.a.krotkov@nasa.gov); Lok Lamsal (lok.lamsal@nasa.gov)

FillValue: -999.
ScaleFactor: 1e15
Units: molecules/cm^2

Date(yyyy-mm-dd),City,Country,LonCenter,LatCenter,BoundingCoordinates,Median,Q1,Q3,Mean,Baseline_Median,Baseline_Q1,Baseline_Q3,Baseline_Mean,NumGoodSamples,NumTotalSamples
2015-01-01,Nanjing,China,118.8833,32.05,[118.3833 31.549999999999997 119.3833 32.55],21.786,16.977,33.054,26.494,20.229,15.377,28.325,23.126,173.0,565.0
2015-01-02,Nanjing,China,118.8833,32.05,[118.3833 31.549999999999997 119.3833 32.55],22.916,17.896,34.857,27.233,20.339,15.355,29.457,23.313,196.0,559.0
2015-01-03,Nanjing,China,118.8833,32.05,[118.3833 31.549999999999997 119.3833 32.55],21.786,17.383,32.109,26.192,19.6,14.678,27.567,22.464,183.0,572.0
2015-01-04,Nanjing,China,118.8833,32.05,[118.3833 31.549999999999997 119.3833 32.55],20.919,16.772,30.719,25.143,19.669,14.97,27.494,22.409,203.0,549.0
2015-01-05,Nanjing,China,118.8833,32.05,[118.3833 31.549999999999997 119.3833 32.55],21.786,16.772,33.023,25.894,19.865,15.194,27.561,22.24,185.0,552.0
2015-01-06,Nanjing,China,118.8833,32.05,[118.3833 31.549999999999997 119.3833 32.55],21.786,16.772,33.023,25.894,19.73,15.017,27.425,22.162,185.0,548.0
2015-01-07,Nanjing,China,118.8833,32.05,[118.3833 31.549999999999997 119.3833 32.55],24.692,18.757,35.934,28.118,20.369,15.486,27.566,22.258,157.0,562.0
2015-01-08,Nanjing,China,118.8833,32.05,[118.3833 31.549999999999997 119.3833 32.55],24.589,17.157,35.568,27.63,20.49,15.049,27.933,22.47,128.0,555.0
2015-01-09,Nanjing,China,118.8833,32.05,[118.3833 31.549999999999997 119.3833 32.55],24.589,17.157,35.568,27.63,21.234,15.77,28.195,22.77,128.0,561.0
2015-01-10,Nanjing,China,118.8833,32.05,[118.3833 31.549999999999997 119.3833 32.55],20.678,16.772,28.106,24.272,18.588,14.447,23.933,20.137,103.0,530.0
2015-01-11,Nanjing,China,118.8833,32.05,[118.3833 31.549999999999997 119.3833 32.55],21.493,16.772,32.049,25.256,18.705,14.24,25.539,20.551,123.0,517.0
2015-01-12,Nanjing,China,118.8833,32.05,[118.3833 31.549999999999997 119.3833 32.55],28.106,17.157,38.861,29.475,19.975,14.137,26.189,20.935,94.0,524.0
2015-01-13,Nanjing,China,118.8833,32.05,[118.3833 31.549999999999997 119.3833 32.55],27.078,20.678,35.816,29.059,19.92,14.299,26.201,21.295,116.0,513.0
2015-01-14,Nanjing,China,118.8833,32.05,[118.3833 31.549999999999997 119.3833 32.55],27.078,20.678,35.816,29.059,20.084,14.294,26.099,21.229,116.0,519.0
2015-01-15,Nanjing,China,118.8833,32.05,[118.3833 31.549999999999997 119.3833 32.55],25.286,18.152,34.933,26.253,19.327,13.584,25.146,20.194,93.0,520.0
2015-01-16,Nanjing,China,118.8833,32.05,[118.3833 31.549999999999997 119.3833 32.55],26.091,18.932,35.427,27.326,19.801,14.242,26.995,21.034,126.0,534.0
2015-01-17,Nanjing,China,118.8833,32.05,[118.3833 31.549999999999997 119.3833 32.55],25.286,18.67,34.933,26.121,20.008,14.301,27.021,20.77,103.0,529.0
2015-01-18,Nanjing,China,118.8833,32.05,[118.3833 31.549999999999997 119.3833 32.55],25.286,18.67,34.933,26.121,17.786,12.878,23.739,19.185,103.0,524.0
2015-01-19,Nanjing,China,118.8833,32.05,[118.3833 31.549999999999997 119.3833 32.55],26.857,21.128,35.816,28.539,17.224,12.489,23.21,18.836,83.0,538.0
2015-01-20,Nanjing,China,118.8833,32.05,[118.3833 31.549999999999997 119.3833 32.55],26.857,21.128,35.816,28.539,16.22,11.817,22.493,18.193,83.0,516.0
2015-01-21,Nanjing,China,118.8833,32.05,[118.3833 31.549999999999997 119.3833 32.55],26.857,21.128,35.816,28.539,16.38,12.039,22.424,18.164,83.0,519.0
2015-01-22,Nanjing,China,118.8833,32.05,[118.3833 31.549999999999997 119.3833 32.55],26.857,21.128,35.816,28.539,16.368,12.022,22.507,18.113,83.0,518.0
2015-01-23,Nanjing,China,118.8833,32.05,[118.3833 31.549999999999997 119.3833 32.55],26.857,21.128,35.816,28.539,16.106,11.592,21.819,17.678,83.0,534.0
2015-01-24,Nanjing,China,118.8833,32.05,[118.3833 31.549999999999997 119.3833 32.55],26.456,20.063,35.427,27.389,16.059,11.612,22.064,17.743,86.0,528.0
2015-01-25,Nanjing,China,118.8833,32.05,[118.3833 31.549999999999997 119.3833 32.55],26.456,20.063,35.427,27.389,16.726,12.074,22.538,18.215,86.0,566.0
2015-01-26,Nanjing,China,118.8833,32.05,[118.3833 31.549999999999997 119.3833 32.55],25.286,20.063,35.153,26.497,15.667,11.641,21.702,17.48,66.0,567.0
2015-01-27,Nanjing,China,118.8833,32.05,[118.3833 31.549999999999997 119.3833 32.55],25.286,20.063,35.153,26.497,15.458,11.762,20.736,16.91,66.0,556.0
2015-01-28,Nanjing,China,118.8833,32.05,[118.3833 31.549999999999997 119.3833 32.55],21.962,12.342,35.908,23.907,14.763,10.875,20.197,15.857,44.0,562.0
2015-01-29,Nanjing,China,118.8833,32.05,[118.3833 31.549999999999997 119.3833 32.55],24.033,19.442,28.293,24.585,15.712,12.193,19.703,16.571,72.0,549.0
2015-01-30,Nanjing,China,118.8833,32.05,[118.3833 31.549999999999997 119.3833 32.55],24.874,20.471,29.298,25.915,16.243,12.77,19.938,16.993,64.0,553.0
2015-01-31,Nanjing,China,118.8833,32.05,[118.3833 31.549999999999997 119.3833 32.55],24.033,19.653,27.29,23.723,16.329,12.782,19.318,16.153,44.0,556.0
2015-02-01,Nanjing,China,118.8833,32.05,[118.3833 31.549999999999997 119.3833 32.55],23.842,17.926,26.483,21.802,14.22,10.155,17.339,14.039,77.0,571.0
2015-02-02,Nanjing,China,118.8833,32.05,[118.3833 31.549999999999997 119.3833 32.55],23.842,17.926,26.483,21.802,15.46,10.332,18.596,15.001,77.0,568.0
2015-02-03,Nanjing,China,118.8833,32.05,[118.3833 31.549999999999997 119.3833 32.55],22.05,14.38,26.168,20.353,14.315,9.866,17.91,14.239,103.0,561.0
2015-02-04,Nanjing,China,118.8833,32.05,[118.3833 31.549999999999997 119.3833 32.55],22.05,14.38,26.168,20.353,14.842,9.913,18.545,14.749,103.0,573.0
2015-02-05,Nanjing,China,118.8833,32.05,[118.3833 31.549999999999997 119.3833 32.55],20.628,14.122,24.519,19.995,15.017,10.248,18.595,15.107,119.0,553.0
2015-02-06,Nanjing,China,118.8833,32.05,[118.3833 31.549999999999997 119.3833 32.55],20.628,14.122,24.519,19.995,14.217,9.667,18.674,14.854,119.0,554.0
2015-02-07,Nanjing,China,118.8833,32.05,[118.3833 31.549999999999997 119.3833 32.55],20.471,14.122,24.249,19.815,14.168,9.776,18.653,14.912,127.0,552.0
2015-02-08,Nanjing,China,118.8833,32.05,[118.3833 31.549999999999997 119.3833 32.55],20.628,15.38,24.519,20.301,14.242,9.905,18.749,14.982,124.0,568.0
2015-02-09,Nanjing,China,118.8833,32.05,[118.3833 31.549999999999997 119.3833 32.55],19.442,13.853,24.147,19.322,14.271,9.739,18.909,14.919,143.0,562.0
2015-02-10,Nanjing,China,118.8833,32.05,[118.3833 31.549999999999997 119.3833 32.55],18.534,13.193,24.033,18.705,14.425,9.764,19.621,14.986,172.0,568.0
2015-02-11,Nanjing,China,118.8833,32.05,[118.3833 31.549999999999997 119.3833 32.55],18.534,13.193,24.033,18.705,14.092,9.591,19.702,15.029,172.0,537.0
2015-02-12,Nanjing,China,118.8833,32.05,[118.3833 31.549999999999997 119.3833 32.55],17.713,11.551,23.842,17.767,13.913,9.391,19.414,14.843,195.0,524.0
2015-02-13,Nanjing,China,118.8833,32.05,[118.3833 31.549999999999997 119.3833 32.55],13.858,10.064,18.915,14.948,13.275,9.296,18.577,14.392,167.0,527.0
2015-02-14,Nanjing,China,118.8833,32.05,[118.3833 31.549999999999997 119.3833 32.55],13.858,10.064,18.915,14.948,12.317,8.936,17.572,13.834,167.0,514.0
2015-02-15,Nanjing,China,118.8833,32.05,[118.3833 31.549999999999997 119.3833 32.55],13.62,9.48,17.56,13.521,12.247,8.863,17.309,13.525,154.0,517.0
2015-02-16,Nanjing,China,118.8833,32.05,[118.3833 31.549999999999997 119.3833 32.55],13.67,9.999,17.713,13.715,13.455,10.024,18.005,14.39,121.0,519.0
2015-02-17,Nanjing,China,118.8833,32.05,[118.3833 31.549999999999997 119.3833 32.55],13.67,9.999,17.713,13.715,13.281,9.93,17.992,14.347,121.0,531.0
2015-02-18,Nanjing,China,118.8833,32.05,[118.3833 31.549999999999997 119.3833 32.55],13.709,10.108,18.466,13.876,14.15,11.039,18.543,15.194,95.0,530.0
2015-02-19,Nanjing,China,118.8833,32.05,[118.3833 31.549999999999997 119.3833 32.55],13.709,10.108,18.466,13.854,14.043,10.735,18.493,14.935,96.0,527.0
2015-02-20,Nanjing,China,118.8833,32.05,[118.3833 31.549999999999997 119.3833 32.55],11.565,9.477,15.528,12.547,13.454,10.291,18.469,14.759,80.0,538.0
2015-02-21,Nanjing,China,118.8833,32.05,[118.3833 31.549999999999997 119.3833 32.55],11.565,9.477,15.528,12.547,14.832,11.057,19.274,15.557,80.0,516.0
2015-02-22,Nanjing,China,118.8833,32.05,[118.3833 31.549999999999997 119.3833 32.55],11.175,9.329,13.858,11.832,15.245,11.3,19.397,15.918,72.0,518.0
2015-02-23,Nanjing,China,118.8833,32.05,[118.3833 31.549999999999997 119.3833 32.55],11.304,9.382,14.039,11.909,15.52,11.268,19.407,15.986,76.0,517.0
2015-02-24,Nanjing,China,118.8833,32.05,[118.3833 31.549999999999997 119.3833 32.55],10.513,8.019,13.721,11.148,15.713,11.439,19.764,16.281,57.0,532.0
2015-02-25,Nanjing,China,118.8833,32.05,[118.3833 31.549999999999997 119.3833 32.55],10.536,7.86,13.58,10.11,15.175,11.183,19.319,16.005,29.0,529.0
2015-02-26,Nanjing,China,118.8833,32.05,[118.3833 31.549999999999997 119.3833 32.55],10.536,7.86,13.58,10.11,15.171,11.179,19.224,15.997,29.0,566.0
2015-02-27,Nanjing,China,118.8833,32.05,[118.3833 31.549999999999997 119.3833 32.55],13.58,11.667,14.268,13.537,15.482,11.488,19.553,16.131,6.0,564.0
2015-02-28,Nanjing,China,118.8833,32.05,[118.3833 31.549999999999997 119.3833 32.55],13.58,11.667,14.268,13.537,16.461,12.718,21.652,17.712,6.0,555.0
2015-03-01,Nanjing,China,118.8833,32.05,[118.3833 31.549999999999997 119.3833 32.55],13.58,11.667,14.268,13.537,16.391,12.653,21.709,17.684,6.0,563.0
2015-03-02,Nanjing,China,118.8833,32.05,[118.3833 31.549999999999997 119.3833 32.55],13.58,11.667,14.268,13.537,16.967,12.575,22.327,18.027,6.0,552.0
2015-03-03,Nanjing,China,118.8833,32.05,[118.3833 31.549999999999997 119.3833 32.55],13.58,11.667,14.268,13.537,16.292,12.244,21.774,17.631,6.0,556.0
2015-03-04,Nanjing,China,118.8833,32.05,[118.3833 31.549999999999997 119.3833 32.55],22.139,14.268,28.425,21.877,16.518,12.805,22.556,18.063,16.0,559.0
2015-03-05,Nanjing,China,118.8833,32.05,[118.3833 31.549999999999997 119.3833 32.55],23.222,15.821,31.969,24.332,16.55,12.962,22.56,18.125,50.0,571.0
2015-03-06,Nanjing,China,118.8833,32.05,[118.3833 31.549999999999997 119.3833 32.55],23.222,16.765,31.969,24.541,17.201,13.164,23.539,18.744,49.0,568.0
2015-03-07,Nanjing,China,118.8833,32.05,[118.3833 31.549999999999997 119.3833 32.55],23.222,16.765,31.969,24.541,17.584,13.352,23.67,18.986,49.0,562.0
2015-03-08,Nanjing,China,118.8833,32.05,[118.3833 31.549999999999997 119.3833 32.55],23.222,16.765,31.969,24.541,17.821,12.921,23.286,18.779,49.0,574.0
2015-03-09,Nanjing,China,118.8833,32.05,[118.3833 31.549999999999997 119.3833 32.55],23.222,16.765,31.969,24.541,17.729,11.864,23.826,18.569,49.0,552.0
2015-03-10,Nanjing,China,118.8833,32.05,[118.3833 31.549999999999997 119.3833 32.55],23.796,16.765,31.983,25.168,18.322,11.983,24.264,18.987,45.0,553.0
2015-03-11,Nanjing,China,118.8833,32.05,[118.3833 31.549999999999997 119.3833 32.55],23.796,16.765,31.983,25.168,18.362,11.926,24.113,18.964,45.0,550.0
2015-03-12,Nanjing,China,118.8833,32.05,[118.3833 31.549999999999997 119.3833 32.55],26.426,17.039,31.983,25.705,19.293,12.475,24.966,19.672,44.0,563.0
2015-03-13,Nanjing,China,118.8833,32.05,[118.3833 31.549999999999997 119.3833 32.55],26.426,17.039,31.983,25.705,19.298,12.477,25.056,19.689,44.0,558.0
2015-03-14,Nanjing,China,118.8833,32.05,[118.3833 31.549999999999997 119.3833 32.55],20.276,14.007,28.814,21.057,18.215,11.915,24.691,18.949,72.0,568.0
2015-03-15,Nanjing,China,118.8833,32.05,[118.3833 31.549999999999997 119.3833 32.55],20.276,14.007,28.814,21.057,15.608,11.638,21.975,17.581,72.0,538.0
2015-03-16,Nanjing,China,118.8833,32.05,[118.3833 31.549999999999997 119.3833 32.55],20.276,14.007,28.814,21.057,15.936,11.71,22.359,17.862,72.0,526.0
2015-03-17,Nanjing,China,118.8833,32.05,[118.3833 31.549999999999997 119.3833 32.55],20.276,14.007,28.814,21.057,16.245,11.23,22.269,17.843,72.0,532.0
2015-03-18,Nanjing,China,118.8833,32.05,[118.3833 31.549999999999997 119.3833 32.55],15.667,11.274,20.882,17.371,16.283,11.166,21.746,17.777,100.0,520.0
2015-03-19,Nanjing,China,118.8833,32.05,[118.3833 31.549999999999997 119.3833 32.55],14.64,11.217,19.58,16.458,17.28,12.639,23.332,18.76,90.0,524.0
2015-03-20,Nanjing,China,118.8833,32.05,[118.3833 31.549999999999997 119.3833 32.55],14.398,10.868,17.344,14.215,17.818,12.818,23.421,18.723,56.0,525.0
2015-03-21,Nanjing,China,118.8833,32.05,[118.3833 31.549999999999997 119.3833 32.55],14.784,11.217,19.58,16.207,16.072,11.661,23.02,18.004,88.0,538.0
2015-03-22,Nanjing,China,118.8833,32.05,[118.3833 31.549999999999997 119.3833 32.55],14.784,11.217,19.58,16.207,16.085,11.652,23.095,18.001,88.0,538.0
2015-03-23,Nanjing,China,118.8833,32.05,[118.3833 31.549999999999997 119.3833 32.55],14.784,11.274,19.977,16.277,16.18,11.37,22.868,17.917,97.0,535.0
2015-03-24,Nanjing,China,118.8833,32.05,[118.3833 31.549999999999997 119.3833 32.55],14.784,11.274,19.977,16.277,15.862,11.813,22.738,17.966,97.0,546.0
2015-03-25,Nanjing,China,118.8833,32.05,[118.3833 31.549999999999997 119.3833 32.55],14.784,11.274,19.977,16.277,14.555,10.676,21.24,16.328,97.0,522.0
2015-03-26,Nanjing,China,118.8833,32.05,[118.3833 31.549999999999997 119.3833 32.55],14.784,11.274,19.977,16.277,12.964,9.865,20.06,15.568,97.0,524.0
2015-03-27,Nanjing,China,118.8833,32.05,[118.3833 31.549999999999997 119.3833 32.55],14.784,11.274,19.977,16.277,12.96,9.799,19.86,15.404,97.0,522.0
2015-03-28,Nanjing,China,118.8833,32.05,[118.3833 31.549999999999997 119.3833 32.55],14.784,11.274,19.977,16.277,12.96,9.799,19.86,15.404,97.0,535.0
2015-03-29,Nanjing,China,118.8833,32.05,[118.3833 31.549999999999997 119.3833 32.55],15.181,11.274,20.729,16.882,12.744,9.745,19.234,15.319,69.0,528.0
2015-03-30,Nanjing,China,118.8833,32.05,[118.3833 31.549999999999997 119.3833 32.55],15.181,11.274,20.729,16.882,12.373,9.74,18.055,14.841,69.0,565.0
2015-03-31,Nanjing,China,118.8833,32.05,[118.3833 31.549999999999997 119.3833 32.55],15.181,11.274,20.729,16.882,11.656,9.16,17.221,13.915,69.0,567.0
2015-04-01,Nanjing,China,118.8833,32.05,[118.3833 31.549999999999997 119.3833 32.55],15.667,11.405,21.056,17.303,11.793,9.09,16.816,13.989,88.0,552.0
2015-04-02,Nanjing,China,118.8833,32.05,[118.3833 31.549999999999997 119.3833 32.55],20.529,14.53,26.313,21.181,11.631,9.002,16.639,13.781,60.0,558.0
2015-04-03,Nanjing,China,118.8833,32.05,[118.3833 31.549999999999997 119.3833 32.55],14.53,9.209,22.448,17.229,11.098,8.656,14.479,12.566,72.0,544.0
2015-04-04,Nanjing,China,118.8833,32.05,[118.3833 31.549999999999997 119.3833 32.55],14.53,9.209,22.448,17.229,11.041,8.592,14.323,12.41,72.0,549.0
2015-04-05,Nanjing,China,118.8833,32.05,[118.3833 31.549999999999997 119.3833 32.55],12.425,9.649,16.18,13.732,10.558,8.361,14.073,11.995,66.0,548.0
2015-04-06,Nanjing,China,118.8833,32.05,[118.3833 31.549999999999997 119.3833 32.55],12.425,9.649,16.18,13.732,10.712,8.428,14.511,12.116,66.0,559.0
2015-04-07,Nanjing,China,118.8833,32.05,[118.3833 31.549999999999997 119.3833 32.55],12.425,9.209,15.021,13.097,10.757,8.385,14.413,12.076,76.0,556.0
2015-04-08,Nanjing,China,118.8833,32.05,[118.3833 31.549999999999997 119.3833 32.55],12.425,9.209,15.021,13.097,11.152,8.507,14.772,12.03,76.0,555.0
2015-04-09,Nanjing,China,118.8833,32.05,[118.3833 31.549999999999997 119.3833 32.55],12.243,9.209,15.021,13.087,11.807,9.298,14.68,12.318,77.0,568.0
2015-04-10,Nanjing,China,118.8833,32.05,[118.3833 31.549999999999997 119.3833 32.55],12.004,9.559,14.16,12.642,11.717,9.009,14.915,12.27,95.0,544.0
2015-04-11,Nanjing,China,118.8833,32.05,[118.3833 31.549999999999997 119.3833 32.55],12.004,9.559,14.16,12.642,11.42,8.877,14.757,12.065,95.0,546.0
2015-04-12,Nanjing,China,118.8833,32.05,[118.3833 31.549999999999997 119.3833 32.55],12.004,9.559,14.16,12.642,11.135,8.726,14.604,11.926,95.0,543.0
2015-04-13,Nanjing,China,118.8833,32.05,[118.3833 31.549999999999997 119.3833 32.55],11.581,8.907,14.16,12.193,10.87,8.527,14.238,11.732,113.0,558.0
2015-04-14,Nanjing,China,118.8833,32.05,[118.3833 31.549999999999997 119.3833 32.55],12.204,9.612,15.314,12.921,11.047,8.701,14.487,11.912,141.0,553.0
2015-04-15,Nanjing,China,118.8833,32.05,[118.3833 31.549999999999997 119.3833 32.55],12.243,9.612,15.431,13.387,10.994,8.439,14.42,11.968,171.0,557.0
2015-04-16,Nanjing,China,118.8833,32.05,[118.3833 31.549999999999997 119.3833 32.55],12.139,9.209,15.021,12.708,10.889,8.238,14.387,11.753,152.0,530.0
2015-04-17,Nanjing,China,118.8833,32.05,[118.3833 31.549999999999997 119.3833 32.55],12.139,9.209,15.021,12.708,10.943,8.295,14.275,11.714,152.0,488.0
2015-04-18,Nanjing,China,118.8833,32.05,[118.3833 31.549999999999997 119.3833 32.55],12.227,10.077,15.431,13.226,10.923,8.45,14.344,11.879,140.0,494.0
2015-04-19,Nanjing,China,118.8833,32.05,[118.3833 31.549999999999997 119.3833 32.55],11.003,9.559,13.791,12.226,10.783,8.654,14.211,11.9,167.0,481.0
2015-04-20,Nanjing,China,118.8833,32.05,[118.3833 31.549999999999997 119.3833 32.55],10.792,8.865,13.671,12.103,10.629,8.335,13.951,11.611,141.0,487.0
2015-04-21,Nanjing,China,118.8833,32.05,[118.3833 31.549999999999997 119.3833 32.55],10.801,9.001,13.354,11.914,10.556,8.299,13.516,11.418,181.0,489.0
2015-04-22,Nanjing,China,118.8833,32.05,[118.3833 31.549999999999997 119.3833 32.55],10.792,9.001,13.323,11.923,10.521,8.339,13.24,11.266,170.0,501.0
2015-04-23,Nanjing,China,118.8833,32.05,[118.3833 31.549999999999997 119.3833 32.55],10.801,9.133,13.518,12.128,10.13,8.21,12.541,10.972,185.0,497.0
2015-04-24,Nanjing,China,118.8833,32.05,[118.3833 31.549999999999997 119.3833 32.55],10.792,9.008,13.45,11.998,10.163,8.269,12.477,10.88,209.0,495.0
2015-04-25,Nanjing,China,118.8833,32.05,[118.3833 31.549999999999997 119.3833 32.55],10.801,9.001,13.566,12.118,10.107,8.154,12.618,10.748,191.0,509.0
2015-04-26,Nanjing,China,118.8833,32.05,[118.3833 31.549999999999997 119.3833 32.55],10.792,8.865,13.354,11.882,10.034,7.95,12.564,10.643,198.0,488.0
2015-04-27,Nanjing,China,118.8833,32.05,[118.3833 31.549999999999997 119.3833 32.55],10.792,8.865,13.354,11.882,9.819,7.563,12.234,10.332,198.0,492.0
2015-04-28,Nanjing,China,118.8833,32.05,[118.3833 31.549999999999997 119.3833 32.55],10.539,8.728,13.207,11.681,9.454,7.35,12.322,10.271,201.0,491.0
2015-04-29,Nanjing,China,118.8833,32.05,[118.3833 31.549999999999997 119.3833 32.55],10.091,8.428,12.259,11.019,9.296,7.216,12.044,10.051,173.0,505.0
2015-04-30,Nanjing,China,118.8833,32.05,[118.3833 31.549999999999997 119.3833 32.55],10.032,8.514,11.972,10.402,9.533,7.525,12.039,10.101,155.0,501.0
2015-05-01,Nanjing,China,118.8833,32.05,[118.3833 31.549999999999997 119.3833 32.55],10.032,8.514,11.972,10.402,9.589,7.623,12.141,10.121,155.0,538.0
2015-05-02,Nanjing,China,118.8833,32.05,[118.3833 31.549999999999997 119.3833 32.55],10.032,8.514,11.972,10.402,9.393,7.457,11.816,9.918,155.0,567.0
2015-05-03,Nanjing,China,118.8833,32.05,[118.3833 31.549999999999997 119.3833 32.55],10.025,8.514,11.883,10.367,9.408,7.628,11.547,9.752,158.0,558.0
2015-05-04,Nanjing,China,118.8833,32.05,[118.3833 31.549999999999997 119.3833 32.55],10.041,7.773,12.542,10.571,9.265,7.27,11.626,9.635,131.0,565.0
2015-05-05,Nanjing,China,118.8833,32.05,[118.3833 31.549999999999997 119.3833 32.55],8.746,6.292,11.877,9.342,8.95,6.852,11.422,9.34,159.0,553.0
2015-05-06,Nanjing,China,118.8833,32.05,[118.3833 31.549999999999997 119.3833 32.55],7.432,5.749,10.506,8.604,8.831,6.885,11.021,9.148,119.0,557.0
2015-05-07,Nanjing,China,118.8833,32.05,[118.3833 31.549999999999997 119.3833 32.55],6.968,5.624,10.203,8.386,8.498,6.516,10.901,8.926,128.0,557.0
2015-05-08,Nanjing,China,118.8833,32.05,[118.3833 31.549999999999997 119.3833 32.55],6.743,5.607,9.692,7.827,7.877,6.171,10.345,8.391,113.0,569.0
2015-05-09,Nanjing,China,118.8833,32.05,[118.3833 31.549999999999997 119.3833 32.55],6.676,5.558,9.512,7.638,7.674,5.875,9.955,8.115,101.0,564.0
2015-05-10,Nanjing,China,118.8833,32.05,[118.3833 31.549999999999997 119.3833 32.55],6.743,5.574,9.692,7.785,7.835,6.225,10.23,8.277,122.0,559.0
2015-05-11,Nanjing,China,118.8833,32.05,[118.3833 31.549999999999997 119.3833 32.55],6.894,5.624,9.862,7.926,7.833,6.256,10.258,8.346,115.0,573.0
2015-05-12,Nanjing,China,118.8833,32.05,[118.3833 31.549999999999997 119.3833 32.55],7.461,5.771,10.52,8.441,8.154,6.458,10.611,8.6,135.0,554.0
2015-05-13,Nanjing,China,118.8833,32.05,[118.3833 31.549999999999997 119.3833 32.55],7.461,5.749,10.52,8.362,8.151,6.555,10.712,8.682,114.0,556.0
2015-05-14,Nanjing,China,118.8833,32.05,[118.3833 31.549999999999997 119.3833 32.55],9.047,6.232,12.02,9.509,8.523,6.64,11.067,8.971,149.0,554.0
2015-05-15,Nanjing,China,118.8833,32.05,[118.3833 31.549999999999997 119.3833 32.55],8.693,6.232,11.786,9.436,8.444,6.654,10.996,8.924,143.0,568.0
2015-05-16,Nanjing,China,118.8833,32.05,[118.3833 31.549999999999997 119.3833 32.55],8.693,6.232,11.786,9.436,8.235,6.461,10.772,8.701,143.0,564.0
2015-05-17,Nanjing,China,118.8833,32.05,[118.3833 31.549999999999997 119.3833 32.55],8.693,6.232,11.706,9.347,8.102,6.382,10.463,8.591,173.0,573.0
2015-05-18,Nanjing,China,118.8833,32.05,[118.3833 31.549999999999997 119.3833 32.55],8.693,6.232,11.629,9.361,7.98,6.259,10.44,8.496,170.0,541.0
2015-05-19,Nanjing,China,118.8833,32.05,[118.3833 31.549999999999997 119.3833 32.55],8.693,6.232,11.629,9.361,8.044,6.397,10.519,8.539,170.0,529.0
2015-05-20,Nanjing,China,118.8833,32.05,[118.3833 31.549999999999997 119.3833 32.55],10.282,8.036,13.472,10.63,8.289,6.66,10.77,8.682,142.0,534.0
2015-05-21,Nanjing,China,118.8833,32.05,[118.3833 31.549999999999997 119.3833 32.55],10.282,8.036,13.472,10.63,8.363,6.647,10.601,8.701,142.0,523.0
2015-05-22,Nanjing,China,118.8833,32.05,[118.3833 31.549999999999997 119.3833 32.55],10.93,8.693,13.829,11.271,8.437,6.67,10.608,8.759,125.0,530.0
2015-05-23,Nanjing,China,118.8833,32.05,[118.3833 31.549999999999997 119.3833 32.55],10.93,8.693,13.829,11.271,8.927,7.116,11.044,9.216,125.0,531.0
2015-05-24,Nanjing,China,118.8833,32.05,[118.3833 31.549999999999997 119.3833 32.55],10.774,8.637,13.826,10.914,9.04,7.308,11.22,9.274,145.0,545.0
2015-05-25,Nanjing,China,118.8833,32.05,[118.3833 31.549999999999997 119.3833 32.55],10.774,8.637,13.829,11.002,8.682,7.034,11.071,9.138,126.0,541.0
2015-05-26,Nanjing,China,118.8833,32.05,[118.3833 31.549999999999997 119.3833 32.55],10.774,8.637,13.829,11.002,8.546,6.995,10.947,9.024,126.0,535.0
2015-05-27,Nanjing,China,118.8833,32.05,[118.3833 31.549999999999997 119.3833 32.55],10.239,7.464,14.551,10.715,8.516,6.877,10.995,8.961,106.0,545.0
2015-05-28,Nanjing,China,118.8833,32.05,[118.3833 31.549999999999997 119.3833 32.55],10.239,7.464,14.551,10.715,8.374,6.674,10.718,8.692,106.0,525.0
2015-05-29,Nanjing,China,118.8833,32.05,[118.3833 31.549999999999997 119.3833 32.55],7.109,4.847,10.092,7.766,7.85,6.391,10.006,8.208,71.0,526.0
2015-05-30,Nanjing,China,118.8833,32.05,[118.3833 31.549999999999997 119.3833 32.55],7.277,6.031,8.468,7.485,7.768,6.4,9.695,8.075,103.0,522.0
2015-05-31,Nanjing,China,118.8833,32.05,[118.3833 31.549999999999997 119.3833 32.55],7.277,6.031,8.468,7.485,8.034,6.493,9.828,8.247,103.0,535.0
2015-06-01,Nanjing,China,118.8833,32.05,[118.3833 31.549999999999997 119.3833 32.55],7.244,6.031,8.256,7.265,7.912,6.572,9.892,8.229,75.0,529.0
2015-06-02,Nanjing,China,118.8833,32.05,[118.3833 31.549999999999997 119.3833 32.55],7.244,6.031,8.426,7.451,7.936,6.688,9.951,8.293,82.0,566.0
2015-06-03,Nanjing,China,118.8833,32.05,[118.3833 31.549999999999997 119.3833 32.55],7.244,6.031,8.426,7.451,7.629,6.126,9.319,7.897,82.0,565.0
2015-06-04,Nanjing,China,118.8833,32.05,[118.3833 31.549999999999997 119.3833 32.55],7.11,6.031,8.32,7.339,7.432,6.026,9.046,7.668,105.0,554.0
2015-06-05,Nanjing,China,118.8833,32.05,[118.3833 31.549999999999997 119.3833 32.55],7.11,6.031,8.32,7.339,7.351,5.885,8.842,7.457,105.0,560.0
2015-06-06,Nanjing,China,118.8833,32.05,[118.3833 31.549999999999997 119.3833 32.55],7.726,6.474,8.935,7.743,7.467,5.959,8.942,7.53,126.0,546.0